User: anonymous   Login
Location: Halvern
(37.6252°N, 122.0525°W)
Time: 17:31:19
(UTC+00:00)
Language:

Thor Agena Rocket - Orbit

View from above orbital plane
View from above orbital plane
View from above satellite
View from above satellite

Ground track
Ground track

The orbit data is extracted from the following two-line orbital elements,

1 00733U 64002A   24195.93069035  .00000491  00000-0  19507-3 0  9990
2 00733  99.0754 166.6819 0032600 214.7896 145.1156 14.33253523151780
Epoch (UTC): 13 July 2024 22:20:11
Eccentricity: 0.0032600
inclination: 99.0754°
perigee height: 757 km
apogee height: 804 km
right ascension of ascending node: 166.6819°
argument of perigee: 214.7896°
revolutions per day: 14.33253523
mean anomaly at epoch: 145.1156°
orbit number at epoch: 15178

The dashed part of the orbit path shows where the satellite is in the earth's shadow,  

DLR